[[{"header":{"parameterUnit":"m.s-1","parameterCategory":2,"la1":30.2991,"la2":30.254,"lo1":-89.0895,"lo2":-89.0444,"dy":0.0017,"dx":0.0017,"nx":28,"ny":28,"refTime":"2024-07-11T09:00:00:Z","depth":"0","parameterNumber":2,"parameterNumberName":"U-component_of_CURRENTS"},"data":[0,0,0,0,0,0,0,0,0,0,0,0,0,0,0,0,0,0,0,0,0,0,0,0,0,0,0,0,0,0,0,0,0,0,0,0,0,0,0,0,0,0,0,0,0,0,0,0,0,0,0,0,0,0,0,0,0,0,0.1727,0.1728,0,0.1766,0.1766,0.1766,0.1731,0.173,0.1728,0.1727,0.1832,0.1836,0.184,0,0,0,0,0,0,0,0,0,0,0,0,0,0.1679,0.168,0.1727,0.1728,0.1728,0.1766,0.1766,0.1767,0.1731,0.173,0.1728,0.1727,0.183,0.1835,0.184,0,0,0,0,0,0,0,0,0,0,0,0,0,0.1707,0.168,0.1727,0.1716,0.1715,0.1765,0.1766,0.1767,0.1732,0.173,0.1728,0.1726,0.1829,0.1835,0.1841,0.192,0,0,0.1859,0.1862,0,0,0,0,0,0,0,0,0.1705,0.1708,0.1717,0.1716,0.1716,0.1742,0.1787,0.1821,0.1732,0.1725,0.1727,0.1725,0.181,0.1817,0.1827,0.1925,0.1929,0.186,0.1864,0.1866,0.1868,0,0,0,0,0,0,0,0.1703,0.1707,0.1742,0.1718,0.1717,0.1728,0.1729,0.1794,0.1779,0.1725,0.1723,0.1729,0.181,0.1822,0.183,0.1931,0.186,0.1865,0.1869,0.1871,0.2125,0.2128,0,0,0,0,0,0,0.1699,0.1705,0.1741,0.1743,0.1706,0.173,0.1731,0.1735,0.1777,0.1781,0.1731,0.1727,0.1812,0.1823,0.1834,0.1976,0.1866,0.1872,0.1875,0.2122,0.2126,0.2129,0,0,0,0,0,0,0.1698,0.1702,0.1739,0.1725,0.1731,0.1733,0.1738,0.1737,0.1756,0.178,0.1785,0.175,0.1811,0.1825,0.1902,0.1978,0.1875,0.188,0.2118,0.2123,0.2127,0.2233,0,0,0,0,0,0,0.1696,0.1701,0.1727,0.1725,0.1731,0.1803,0.174,0.1739,0.1762,0.1758,0.18,0.1806,0.181,0.1893,0.1908,0.1985,0.1885,0.2114,0.2121,0.2126,0.2226,0.2241,0.2254,0,0,0,0,0,0.1694,0.1762,0.1728,0.1734,0.1759,0.1807,0.1813,0.1806,0.1765,0.1807,0.1812,0.1805,0.194,0.19,0.1917,0.1998,0.2112,0.2119,0.2125,0.2219,0.2238,0.2253,0,0,0,0,0,0,0.1807,0.1764,0.1728,0.179,0.1801,0.1801,0.1857,0.1822,0.1857,0.1857,0.1847,0.1858,0.1959,0.1963,0.1919,0.2087,0.2025,0.2036,0.2091,0.2109,0.2122,0.2132,0.189,0,0,0,0,0,0.1827,0.1841,0.1815,0.1876,0.1881,0.1861,0.1883,0.1869,0.1887,0.1898,0.1906,0.1938,0.2005,0.2038,0.2094,0.2188,0.2203,0.225,0.2264,0.2275,0.2295,0.2379,0.2402,0.2152,0.2152,0.2152,0,0,0.1892,0.1874,0.1886,0.1896,0.1904,0.1943,0.1872,0.1926,0.1962,0.1912,0.1981,0.1998,0.2041,0.2143,0.2189,0.2154,0.2356,0.2284,0.2294,0.2308,0.2388,0.2413,0.2434,0.2156,0.2156,0.2155,0,0,0.2015,0.2008,0.2038,0.2046,0.2051,0.2046,0.2058,0.205,0.2057,0.2118,0.2095,0.2151,0.2229,0.2273,0.2308,0.2438,0.2431,0.2453,0.2533,0.2614,0.2635,0.2654,0.2705,0.2727,0.2454,0.2454,0.2454,0,0.2093,0.2103,0.2073,0.2105,0.212,0.209,0.2133,0.2165,0.218,0.2191,0.2162,0.2263,0.2302,0.2422,0.2465,0.2475,0.2498,0.2463,0.2632,0.2651,0.2669,0.2716,0.2739,0.246,0.2459,0.2459,0.2458,0,0.2198,0.2217,0.2261,0.2257,0.2293,0.234,0.2345,0.2381,0.2366,0.2361,0.2448,0.2481,0.2526,0.2562,0.2562,0.2705,0.2674,0.2643,0.2586,0.27,0.2743,0.2765,0.2469,0.2467,0.2465,0.2463,0,0,0.231,0.2317,0.2321,0.2314,0.2355,0.2381,0.2481,0.252,0.2546,0.2586,0.2626,0.2747,0.2712,0.275,0.275,0.2827,0.2978,0.2792,0.2793,0.2836,0.3141,0.3084,0.3102,0.2969,0.2974,0.2977,0.312,0,0.2379,0.2422,0.2423,0.2491,0.2508,0.2521,0.2597,0.2643,0.2666,0.2709,0.276,0.2812,0.2801,0.2811,0.2899,0.2947,0.3042,0.2941,0.3029,0.3032,0.2963,0.3129,0.3039,0.3156,0.3141,0.3145,0.3148,0,0.2435,0.2448,0.2497,0.2524,0.2535,0.2585,0.2644,0.2709,0.2793,0.2805,0.287,0.2885,0.3012,0.2972,0.3149,0.3078,0.3139,0.3177,0.3182,0.3109,0.3018,0.3041,0.3196,0.3042,0.3182,0.3179,0.3177,0,0.2433,0.2487,0.2507,0.2521,0.2575,0.2605,0.2645,0.2724,0.2763,0.2858,0.288,0.3005,0.3045,0.3169,0.3245,0.3212,0.3417,0.3373,0.3388,0.3382,0.3316,0.3297,0.333,0.3538,0.3538,0.3538,0.3537,0,0.2456,0.2471,0.2494,0.25,0.2536,0.2586,0.2632,0.269,0.2771,0.2814,0.2909,0.2955,0.3099,0.3208,0.3295,0.3409,0.3465,0.3452,0.3442,0.3348,0.3331,0.3197,0.3109,0.3543,0.3542,0.3541,0.354,0,0.2432,0.2447,0.2469,0.2512,0.2524,0.2547,0.2604,0.2631,0.272,0.2784,0.282,0.2949,0.309,0.3225,0.3409,0.3446,0.3482,0.3597,0.3461,0.3434,0.3287,0.3208,0.321,0.3164,0.366,0.366,0.366,0,0.2418,0.2419,0.2453,0.2447,0.2457,0.2488,0.2502,0.2593,0.2624,0.2762,0.2788,0.2947,0.3033,0.3274,0.3411,0.3586,0.3472,0.3564,0.3506,0.3312,0.3219,0.311,0.3064,0.3463,0.3461,0.346,0.3458,0,0.2384,0.2389,0.2392,0.2389,0.239,0.2404,0.2435,0.2458,0.2564,0.2621,0.2709,0.28,0.304,0.3166,0.3381,0.3479,0.3383,0.3538,0.3395,0.3137,0.2968,0.2903,0.3304,0.3446,0.3447,0.3448,0.3449,0.3449,0.234,0.2337,0.2329,0.2314,0.2308,0.2303,0.2294,0.2337,0.2382,0.2458,0.2592,0.2684,0.2905,0.3204,0.3261,0.3275,0.3312,0.3227,0.3173,0.31,0.2983,0.3341,0.3421,0.3422,0.3423,0.3424,0.3425,0,0.2283,0.2267,0.225,0.2222,0.2168,0.2209,0.2225,0.2207,0.2212,0.232,0.2399,0.2569,0.2715,0.287,0.299,0.2909,0.2867,0.2841,0.2665,0.2662,0.304,0.2954,0.2863,0.2863,0.2863,0.2863,0.2863,0.2864,0.2241,0.22,0.2191,0.2082,0.2051,0.1997,0.1993,0.1988,0.2042,0.2076,0.2139,0.2255,0.2425,0.2542,0.2499,0.2498,0.2339,0.2294,0.2289,0.2503,0.2533,0.2562,0.246,0.2268,0.2267,0.1874,0.187,0.1867]},{"header":{"parameterUnit":"m.s-1","parameterCategory":2,"la1":30.2991,"la2":30.254,"lo1":-89.0895,"lo2":-89.0444,"dy":0.0017,"dx":0.0017,"nx":28,"ny":28,"refTime":"2024-07-11T09:00:00:Z","depth":"0","parameterNumber":3,"parameterNumberName":"V-component_of_CURRENTS"},"data":[0,0,0,0,0,0,0,0,0,0,0,0,0,0,0,0,0,0,0,0,0,0,0,0,0,0,0,0,0,0,0,0,0,0,0,0,0,0,0,0,0,0,0,0,0,0,0,0,0,0,0,0,0,0,0,0,0,0,0.0671,0.0672,0,0.0717,0.0717,0.0717,0.0709,0.0708,0.0708,0.0707,0.0668,0.0668,0.0667,0,0,0,0,0,0,0,0,0,0,0,0,0,0.0556,0.0558,0.0671,0.0672,0.0672,0.0717,0.0717,0.0718,0.0709,0.0708,0.0708,0.0707,0.0668,0.0668,0.0667,0,0,0,0,0,0,0,0,0,0,0,0,0,0.0602,0.0558,0.0671,0.0675,0.0676,0.0717,0.0717,0.0718,0.0709,0.0708,0.0707,0.0706,0.0668,0.0668,0.0667,0.0682,0,0,0.0665,0.0665,0,0,0,0,0,0,0,0,0.0599,0.0606,0.0674,0.0675,0.0676,0.0708,0.0662,0.0702,0.0709,0.0694,0.0707,0.0706,0.0676,0.0674,0.0683,0.068,0.0678,0.0665,0.0665,0.0664,0.0664,0,0,0,0,0,0,0,0.0596,0.0604,0.0687,0.0675,0.0676,0.0668,0.0673,0.067,0.0686,0.0696,0.0696,0.0704,0.0675,0.0684,0.0682,0.0678,0.0665,0.0664,0.0664,0.0664,0.0668,0.0669,0,0,0,0,0,0,0.0598,0.0601,0.0685,0.0688,0.0637,0.0671,0.0677,0.0697,0.0688,0.0688,0.0705,0.0704,0.0686,0.0683,0.0681,0.0708,0.0664,0.0664,0.0663,0.0668,0.0669,0.0669,0,0,0,0,0,0,0.0595,0.0605,0.0684,0.0646,0.0656,0.0674,0.0697,0.0698,0.071,0.0697,0.0694,0.0715,0.0685,0.0681,0.068,0.0705,0.0663,0.0663,0.0667,0.0668,0.0669,0.0754,0,0,0,0,0,0,0.0592,0.0604,0.0618,0.0647,0.0658,0.0718,0.0698,0.07,0.0718,0.0717,0.0705,0.07,0.0684,0.0681,0.0679,0.0704,0.0662,0.0667,0.0668,0.0669,0.0751,0.0758,0.0764,0,0,0,0,0,0.0588,0.0621,0.0618,0.0628,0.0678,0.0719,0.0725,0.0731,0.0719,0.0736,0.0719,0.0701,0.0686,0.0681,0.0679,0.0704,0.0666,0.0667,0.0669,0.0748,0.0757,0.0764,0,0,0,0,0,0,0.0577,0.0625,0.0622,0.0667,0.0691,0.0719,0.0738,0.0738,0.0741,0.0734,0.0711,0.0707,0.0716,0.0694,0.0689,0.0705,0.0672,0.0672,0.0733,0.0741,0.0747,0.0757,0.0662,0,0,0,0,0,0.0581,0.0622,0.0652,0.0688,0.0701,0.0717,0.0733,0.0739,0.0747,0.0749,0.0737,0.0722,0.0721,0.0717,0.0709,0.072,0.0691,0.0731,0.0738,0.0744,0.0749,0.0727,0.0733,0.0673,0.0673,0.0673,0,0,0.0587,0.0619,0.0641,0.0688,0.0706,0.074,0.0725,0.0758,0.078,0.0743,0.076,0.0747,0.0728,0.0743,0.0744,0.0726,0.0745,0.0745,0.0751,0.0753,0.0729,0.0735,0.0741,0.0674,0.0674,0.0674,0,0,0.0626,0.0646,0.069,0.0715,0.075,0.0762,0.0773,0.0798,0.0802,0.0819,0.0798,0.08,0.0792,0.0791,0.0788,0.0824,0.0783,0.0817,0.0861,0.0841,0.0846,0.085,0.0822,0.0823,0.0819,0.0819,0.0819,0,0.0623,0.0685,0.0707,0.075,0.0774,0.0774,0.0815,0.0826,0.0844,0.0851,0.083,0.0833,0.0819,0.0844,0.0857,0.0843,0.0815,0.0837,0.0851,0.0854,0.0857,0.0827,0.0827,0.0823,0.0823,0.0823,0.0822,0,0.0698,0.0734,0.0763,0.0816,0.0845,0.0881,0.0898,0.0914,0.091,0.0917,0.0933,0.0914,0.0913,0.0914,0.0899,0.0919,0.0888,0.0865,0.0835,0.0869,0.0834,0.0833,0.083,0.0828,0.0827,0.0826,0,0,0.0713,0.0797,0.0804,0.083,0.088,0.091,0.0948,0.0984,0.1005,0.1005,0.1034,0.1032,0.1013,0.1007,0.0986,0.0974,0.0974,0.0932,0.0929,0.0912,0.092,0.0882,0.0876,0.0951,0.0952,0.0952,0.089,0,0.0754,0.0837,0.0875,0.0939,0.0974,0.0993,0.103,0.1059,0.1066,0.109,0.1076,0.1091,0.105,0.1052,0.1035,0.0997,0.0973,0.0993,0.0883,0.088,0.0849,0.0874,0.0871,0.0814,0.0888,0.0887,0.0887,0,0.0811,0.0855,0.0925,0.0991,0.101,0.1046,0.1097,0.1133,0.1166,0.117,0.1178,0.1164,0.1165,0.1115,0.1053,0.1065,0.0997,0.0956,0.0952,0.0885,0.0839,0.0791,0.0808,0.0705,0.0884,0.0884,0.0884,0,0.0802,0.089,0.0942,0.0965,0.1038,0.1068,0.1109,0.1152,0.1182,0.122,0.1241,0.1228,0.1222,0.1152,0.1071,0.1057,0.0993,0.0958,0.0856,0.0851,0.0812,0.0804,0.0723,0.0898,0.0899,0.0899,0.0899,0,0.0828,0.0865,0.0938,0.0959,0.1015,0.1073,0.113,0.1164,0.1221,0.1262,0.1274,0.1295,0.1228,0.1188,0.1098,0.098,0.1005,0.0868,0.0837,0.084,0.0836,0.0713,0.0658,0.0896,0.0897,0.0897,0.0898,0,0.0804,0.0855,0.0905,0.0982,0.1007,0.1043,0.1137,0.118,0.1236,0.1291,0.1308,0.1338,0.1295,0.1219,0.1114,0.1008,0.0835,0.0852,0.0861,0.0832,0.0626,0.0576,0.0432,0.0376,0.0722,0.0721,0.072,0,0.0802,0.0826,0.0899,0.0927,0.0959,0.1027,0.1078,0.1162,0.1214,0.1312,0.1339,0.1342,0.1351,0.1206,0.1043,0.0886,0.0788,0.0753,0.0722,0.0618,0.054,0.049,0.0451,0.0701,0.07,0.0699,0.0698,0,0.0779,0.0799,0.0833,0.0897,0.0948,0.1022,0.1105,0.1147,0.1252,0.1313,0.1392,0.1422,0.1313,0.1184,0.0983,0.0862,0.067,0.0725,0.0621,0.052,0.0458,0.039,0.0731,0.069,0.0691,0.0692,0.0692,0.0692,0.0743,0.0759,0.081,0.087,0.0937,0.1024,0.1082,0.1178,0.1269,0.1394,0.1419,0.1497,0.1329,0.1071,0.0888,0.0572,0.057,0.0472,0.042,0.038,0.0324,0.0643,0.0565,0.0565,0.0565,0.0565,0.0565,0,0.0701,0.074,0.0793,0.0871,0.0946,0.0997,0.111,0.1183,0.129,0.142,0.1508,0.1488,0.1245,0.0994,0.0569,0.032,0.0238,0.0206,0.0146,0.0121,0.0409,0.0407,0.0289,0.0289,0.0289,0.0289,0.0289,0.029,0.0678,0.0713,0.0755,0.0865,0.0933,0.1033,0.1097,0.1211,0.1327,0.1481,0.1561,0.1622,0.1417,0.0683,0.0189,0.0086,-0.0088,-0.0127,-0.0205,0.0006,0.0028,0.0048,0.0034,-0.0161,-0.0161,-0.0466,-0.0469,-0.0471]}],[{"header":{"parameterUnit":"m.s-1","parameterCategory":2,"la1":30.2991,"la2":30.254,"lo1":-89.0895,"lo2":-89.0444,"dy":0.0017,"dx":0.0017,"nx":28,"ny":28,"refTime":"2024-07-11T09:00:00:Z","depth":"2","parameterNumber":2,"parameterNumberName":"U-component_of_CURRENTS"},"data":[0,0,0,0,0,0,0,0,0,0,0,0,0,0,0,0,0,0,0,0,0,0,0,0,0,0,0,0,0,0,0,0,0,0,0,0,0,0,0,0,0,0,0,0,0,0,0,0,0,0,0,0,0,0,0,0,0,0,0.0674,0.0673,0,0.062,0.0621,0.0621,0.0602,0.0601,0.06,0.0599,0.0649,0.0651,0.0653,0,0,0,0,0,0,0,0,0,0,0,0,0,0.0628,0.0631,0.0675,0.0673,0.0671,0.062,0.0621,0.0621,0.0602,0.0601,0.0599,0.0598,0.0648,0.0651,0.0653,0,0,0,0,0,0,0,0,0,0,0,0,0,0.0631,0.0632,0.0675,0.0645,0.0641,0.062,0.0621,0.0621,0.0602,0.0601,0.0599,0.0598,0.0647,0.065,0.0654,0.0705,0,0,0.0664,0.0666,0,0,0,0,0,0,0,0,0.0632,0.0635,0.0652,0.0647,0.0642,0.0605,0.0622,0.065,0.0603,0.0631,0.0599,0.0597,0.0636,0.064,0.0651,0.0707,0.0709,0.0664,0.0666,0.0668,0.0669,0,0,0,0,0,0,0,0.0632,0.0636,0.0666,0.0649,0.0644,0.0588,0.059,0.0627,0.0655,0.0628,0.0623,0.0597,0.0636,0.0648,0.0652,0.071,0.0664,0.0667,0.0669,0.0671,0.0845,0.0847,0,0,0,0,0,0,0.0621,0.0637,0.0668,0.0663,0.0618,0.059,0.0592,0.0629,0.0652,0.0649,0.0598,0.0596,0.0642,0.0648,0.0654,0.0796,0.0668,0.0671,0.0673,0.0842,0.0845,0.0848,0,0,0,0,0,0,0.0622,0.0628,0.067,0.0634,0.0634,0.0592,0.0634,0.0628,0.0698,0.0626,0.0627,0.0677,0.0641,0.0649,0.0752,0.0795,0.0673,0.0676,0.0839,0.0843,0.0847,0.103,0,0,0,0,0,0,0.0622,0.063,0.0682,0.0636,0.0635,0.0735,0.0633,0.0628,0.0673,0.0672,0.0693,0.0692,0.0641,0.0748,0.0755,0.0797,0.0678,0.0836,0.0841,0.0845,0.1021,0.104,0.1056,0,0,0,0,0,0.0622,0.0657,0.0688,0.069,0.0702,0.0739,0.074,0.0706,0.0679,0.0758,0.0755,0.0694,0.078,0.0756,0.0763,0.0806,0.0833,0.0839,0.0845,0.1013,0.1036,0.1056,0,0,0,0,0,0,0.0663,0.0657,0.0688,0.0728,0.078,0.0732,0.0763,0.0763,0.0822,0.0818,0.0769,0.0772,0.0858,0.0827,0.08,0.0865,0.0781,0.0789,0.0906,0.0928,0.0945,0.0905,0.0681,0,0,0,0,0,0.0703,0.0734,0.0756,0.0802,0.0836,0.0834,0.0849,0.0845,0.0858,0.0883,0.0889,0.0879,0.088,0.0907,0.0907,0.099,0.0926,0.1007,0.1025,0.104,0.1011,0.0994,0.1007,0.0867,0.0867,0.0867,0,0,0.0708,0.0724,0.0733,0.0814,0.0841,0.0858,0.0847,0.0897,0.09,0.0881,0.0933,0.0964,0.0919,0.0979,0.1012,0.0969,0.1053,0.1048,0.1061,0.1022,0.1002,0.1015,0.1027,0.0871,0.087,0.087,0,0,0.0712,0.0797,0.0821,0.0869,0.093,0.0926,0.0968,0.1001,0.1033,0.1118,0.1061,0.1137,0.1172,0.1134,0.1113,0.124,0.1148,0.1244,0.1309,0.1296,0.1307,0.1315,0.1277,0.128,0.1252,0.1253,0.1253,0,0.0733,0.0776,0.0842,0.0879,0.089,0.0963,0.0988,0.1023,0.1082,0.1113,0.1157,0.1205,0.1217,0.1213,0.1263,0.1276,0.1248,0.1239,0.1319,0.1326,0.1331,0.1288,0.129,0.1262,0.1261,0.126,0.1259,0,0.0752,0.0789,0.0816,0.0874,0.0917,0.0969,0.1006,0.1079,0.1142,0.1169,0.1276,0.1331,0.1349,0.1379,0.1373,0.1411,0.1373,0.1348,0.1265,0.1356,0.1306,0.1304,0.1276,0.1273,0.127,0.1267,0,0,0.0783,0.0819,0.0837,0.0846,0.0926,0.0951,0.0986,0.1052,0.1065,0.1211,0.125,0.1349,0.1434,0.1415,0.1441,0.1461,0.1528,0.1451,0.1445,0.141,0.1492,0.1434,0.1425,0.1535,0.1536,0.1536,0.1451,0,0.08,0.0827,0.0847,0.0858,0.0872,0.0929,0.0943,0.1003,0.1093,0.1162,0.1272,0.134,0.1423,0.1482,0.1528,0.1511,0.1528,0.1551,0.1407,0.1401,0.1338,0.1422,0.1338,0.1252,0.1448,0.1447,0.1447,0,0.083,0.083,0.0848,0.083,0.0853,0.0872,0.0922,0.0948,0.1039,0.1122,0.124,0.1323,0.1413,0.1474,0.1507,0.1529,0.1532,0.1522,0.1518,0.1383,0.1338,0.1186,0.124,0.1442,0.1443,0.1443,0.1443,0,0.082,0.0829,0.0838,0.0844,0.0844,0.0874,0.0901,0.0966,0.1008,0.1115,0.1185,0.1286,0.1379,0.1398,0.1465,0.1491,0.1461,0.1468,0.1398,0.1392,0.1241,0.1221,0.1462,0.1462,0.1462,0.1462,0.1463,0,0.0827,0.082,0.0842,0.0844,0.0849,0.087,0.0915,0.0944,0.1023,0.1091,0.1198,0.1281,0.1381,0.141,0.1427,0.1413,0.1432,0.1401,0.1371,0.1306,0.1294,0.1383,0.1375,0.1459,0.146,0.146,0.1461,0,0.0797,0.0824,0.0802,0.0822,0.0844,0.0855,0.093,0.0952,0.1031,0.1117,0.1168,0.1293,0.1349,0.1373,0.1383,0.1367,0.1327,0.1304,0.1216,0.1178,0.127,0.1273,0.121,0.1207,0.1205,0.1203,0.1201,0,0.0777,0.0776,0.0792,0.0801,0.0826,0.0864,0.0896,0.0967,0.1009,0.1138,0.118,0.1274,0.1339,0.1296,0.1251,0.1181,0.1275,0.1073,0.1107,0.127,0.1247,0.1254,0.1259,0.0984,0.0981,0.0979,0.0977,0,0.0708,0.0738,0.071,0.0749,0.0794,0.0824,0.0898,0.0928,0.1026,0.1103,0.1212,0.1261,0.125,0.1174,0.1074,0.1036,0.1076,0.1017,0.1195,0.107,0.1053,0.1033,0.1046,0.0953,0.0955,0.0957,0.0958,0.0959,0.0661,0.061,0.0623,0.0672,0.0727,0.0801,0.083,0.091,0.0983,0.1069,0.113,0.1156,0.1057,0.0892,0.0856,0.0867,0.091,0.0888,0.0898,0.091,0.0909,0.089,0.0756,0.0758,0.0759,0.0759,0.076,0,0.0563,0.0561,0.0562,0.0609,0.069,0.0767,0.0832,0.0846,0.0938,0.0994,0.104,0.0853,0.0756,0.0763,0.0722,0.0665,0.0686,0.069,0.0725,0.0745,0.0763,0.0758,0.0564,0.0564,0.0564,0.0564,0,0,0.0517,0.0471,0.0473,0.0589,0.0674,0.0752,0.0801,0.0834,0.0858,0.0844,0.0854,0.0705,0.0715,0.0597,0.0548,0.061,0.0701,0.0603,0.0747,0.0809,0.083,0.0842,0.0851,0,0,0,0,0]},{"header":{"parameterUnit":"m.s-1","parameterCategory":2,"la1":30.2991,"la2":30.254,"lo1":-89.0895,"lo2":-89.0444,"dy":0.0017,"dx":0.0017,"nx":28,"ny":28,"refTime":"2024-07-11T09:00:00:Z","depth":"2","parameterNumber":3,"parameterNumberName":"V-component_of_CURRENTS"},"data":[0,0,0,0,0,0,0,0,0,0,0,0,0,0,0,0,0,0,0,0,0,0,0,0,0,0,0,0,0,0,0,0,0,0,0,0,0,0,0,0,0,0,0,0,0,0,0,0,0,0,0,0,0,0,0,0,0,0,0.0117,0.0116,0,0.008,0.008,0.008,0.0072,0.0071,0.0071,0.007,-0.0013,-0.0015,-0.0016,0,0,0,0,0,0,0,0,0,0,0,0,0,0.0118,0.0119,0.0117,0.0116,0.0115,0.008,0.008,0.008,0.0072,0.0071,0.0071,0.007,-0.0012,-0.0014,-0.0017,0,0,0,0,0,0,0,0,0,0,0,0,0,0.011,0.012,0.0117,0.0101,0.0099,0.008,0.008,0.008,0.0072,0.0071,0.0071,0.007,-0.0011,-0.0014,-0.0017,-0.0023,0,0,-0.0025,-0.0027,0,0,0,0,0,0,0,0,0.0111,0.0111,0.0105,0.0102,0.0099,0.0074,0.0049,0.0041,0.0072,0.0089,0.007,0.007,0.0008,0.0003,0.0008,-0.0027,-0.003,-0.0026,-0.0027,-0.0029,-0.0029,0,0,0,0,0,0,0,0.0111,0.0112,0.0109,0.0103,0.01,0.0074,0.0074,0.0048,0.0057,0.0088,0.0085,0.007,0.0007,0.0011,0.0006,-0.0032,-0.0026,-0.0028,-0.003,-0.0031,-0.0104,-0.0104,0,0,0,0,0,0,0.0106,0.0113,0.011,0.0107,0.0096,0.0074,0.0074,0.0088,0.0058,0.0051,0.0071,0.007,0.0016,0.0009,0.0003,-0.0011,-0.0029,-0.0031,-0.0033,-0.0103,-0.0104,-0.0104,0,0,0,0,0,0,0.0107,0.0108,0.0112,0.0102,0.01,0.0075,0.0091,0.0088,0.0106,0.0044,0.0038,0.0093,0.0015,0.0007,0.0004,-0.0015,-0.0032,-0.0035,-0.0103,-0.0103,-0.0104,-0.0037,0,0,0,0,0,0,0.0108,0.0109,0.0117,0.0103,0.01,0.0121,0.009,0.0087,0.0093,0.0093,0.0061,0.0052,0.0014,0.0009,0.0001,-0.0019,-0.0037,-0.0103,-0.0103,-0.0104,-0.0039,-0.0035,-0.0032,0,0,0,0,0,0.0109,0.0114,0.0119,0.0117,0.0114,0.0122,0.012,0.0102,0.0095,0.0117,0.0095,0.0054,-0.0002,0.0008,-0.0001,-0.0023,-0.0102,-0.0103,-0.0104,-0.004,-0.0036,-0.0032,0,0,0,0,0,0,0.0089,0.0112,0.0118,0.0123,0.0134,0.0118,0.0113,0.0119,0.0122,0.0116,0.0073,0.0063,0.004,0.001,0.0021,-0.0048,-0.0069,-0.0071,-0.0018,-0.0014,-0.001,-0.0014,-0.004,0,0,0,0,0,0.0097,0.0125,0.0133,0.0136,0.0142,0.0139,0.0138,0.0141,0.0133,0.0136,0.0115,0.0075,0.0028,0.0015,-0.0026,-0.0039,-0.0083,-0.0068,-0.0064,-0.0061,-0.0071,-0.014,-0.0144,-0.0106,-0.0106,-0.0106,0,0,0.0076,0.0098,0.0105,0.0136,0.0135,0.0143,0.014,0.0149,0.0143,0.0123,0.0113,0.0092,0.0027,-0.0001,-0.0016,-0.0023,-0.009,-0.0061,-0.0058,-0.0071,-0.0141,-0.0145,-0.0148,-0.0106,-0.0106,-0.0106,0,0,0.0067,0.0086,0.0116,0.0134,0.0154,0.015,0.0163,0.0176,0.0171,0.0175,0.0136,0.012,0.0072,0.0024,-0.0014,-0.0012,-0.0072,-0.0031,-0.0011,-0.0077,-0.0081,-0.0085,-0.0122,-0.013,-0.0025,-0.0025,-0.0025,0,0.0039,0.0092,0.0118,0.0149,0.0154,0.0158,0.018,0.0164,0.0176,0.0172,0.0174,0.0104,0.0068,0.0004,0.0007,-0.0007,-0.004,-0.0018,-0.0072,-0.0077,-0.0082,-0.012,-0.013,-0.0022,-0.0022,-0.0023,-0.0023,0,0.0072,0.0101,0.011,0.0159,0.0168,0.0188,0.0176,0.0185,0.0181,0.0172,0.0141,0.0107,0.0069,0.0047,0.0029,-0.0028,-0.0037,-0.0059,-0.0078,-0.0082,-0.0122,-0.0133,-0.0018,-0.0019,-0.002,-0.002,0,0,0.0044,0.0124,0.013,0.0158,0.0186,0.0198,0.0177,0.0177,0.0173,0.0158,0.0149,0.0079,0.0087,0.0045,0.002,-0.0029,-0.0074,-0.0045,-0.005,-0.0074,-0.0198,-0.0132,-0.0138,-0.0101,-0.0103,-0.0105,-0.0202,0,0.0065,0.0134,0.0169,0.0199,0.0221,0.0224,0.0211,0.0203,0.0191,0.0182,0.012,0.0103,0.0069,0.008,0.0017,-0.0056,-0.0104,-0.0045,-0.0199,-0.0204,-0.0139,-0.015,-0.0127,-0.0205,-0.0213,-0.0215,-0.0216,0,0.0094,0.0142,0.0193,0.024,0.0252,0.0264,0.0269,0.0267,0.0229,0.0227,0.0188,0.0156,0.0082,0.0067,-0.0093,-0.0049,-0.0117,-0.0177,-0.0182,-0.0158,-0.016,-0.021,-0.0226,-0.0236,-0.0234,-0.0233,-0.0231,0,0.0084,0.0153,0.02,0.0217,0.0262,0.0278,0.0299,0.0283,0.0296,0.0265,0.0282,0.0174,0.0147,0.0015,-0.0097,-0.0095,-0.0264,-0.0284,-0.0298,-0.0293,-0.0325,-0.0319,-0.0399,-0.0399,-0.0399,-0.0399,-0.0399,0,0.0105,0.0145,0.0203,0.0229,0.028,0.0301,0.0344,0.0348,0.0357,0.0381,0.0317,0.0307,0.0135,0.003,-0.0095,-0.0224,-0.0273,-0.03,-0.032,-0.0296,-0.0286,-0.036,-0.0354,-0.0402,-0.0402,-0.0401,-0.04,0,0.0108,0.015,0.0195,0.0252,0.0279,0.0314,0.0399,0.0429,0.0436,0.0463,0.0465,0.0391,0.0259,0.009,-0.011,-0.0192,-0.0336,-0.0366,-0.0302,-0.031,-0.0324,-0.0314,-0.0406,-0.0404,-0.0403,-0.0402,-0.0401,0,0.0136,0.015,0.0206,0.0247,0.0289,0.0354,0.0409,0.0458,0.05,0.0515,0.053,0.0437,0.0376,0.0119,-0.0057,-0.026,-0.0314,-0.0334,-0.0329,-0.0318,-0.0329,-0.032,-0.0311,-0.0349,-0.0348,-0.0347,-0.0346,0,0.0174,0.0172,0.0218,0.0277,0.0345,0.0432,0.0516,0.056,0.0615,0.0637,0.065,0.0609,0.0403,0.0199,-0.0032,-0.0152,-0.0301,-0.0315,-0.0365,-0.0321,-0.0264,-0.0274,-0.0268,-0.0337,-0.0338,-0.0339,-0.0339,-0.0339,0.0201,0.0225,0.0263,0.0326,0.041,0.0517,0.0592,0.0681,0.0761,0.0796,0.0724,0.0642,0.0368,0.0068,-0.0085,-0.0194,-0.0212,-0.0292,-0.0296,-0.0301,-0.0247,-0.0189,-0.0237,-0.0237,-0.0238,-0.0238,-0.0238,0,0.0232,0.0261,0.0321,0.0413,0.0512,0.0546,0.0675,0.0756,0.0867,0.083,0.0817,0.0517,0.0304,0.0067,-0.007,-0.0182,-0.0195,-0.0222,-0.0252,-0.0259,-0.0266,-0.0212,-0.0192,-0.0192,-0.0192,-0.0193,0,0,0.0267,0.0314,0.0338,0.0494,0.0565,0.0707,0.0784,0.0905,0.0926,0.089,0.0784,0.0553,0.0275,0.0111,-0.0055,-0.0086,-0.0124,-0.008,-0.0105,-0.0125,-0.0129,-0.0297,-0.0219,0,0,0,0,0]}],[{"header":{"parameterUnit":"m.s-1","parameterCategory":2,"la1":30.2991,"la2":30.254,"lo1":-89.0895,"lo2":-89.0444,"dy":0.0017,"dx":0.0017,"nx":28,"ny":28,"refTime":"2024-07-11T09:00:00:Z","depth":"4","parameterNumber":2,"parameterNumberName":"U-component_of_CURRENTS"},"data":[0,0,0,0,0,0,0,0,0,0,0,0,0,0,0,0,0,0,0,0,0,0,0,0,0,0,0,0,0,0,0,0,0,0,0,0,0,0,0,0,0,0,0,0,0,0,0,0,0,0,0,0,0,0,0,0,0,0,-0.0393,-0.0394,0,-0.0442,-0.0442,-0.0443,-0.05,-0.0502,-0.0503,-0.0504,-0.066,-0.0663,-0.0666,0,0,0,0,0,0,0,0,0,0,0,0,0,-0.0333,-0.0333,-0.0393,-0.0394,-0.0395,-0.0442,-0.0442,-0.0443,-0.05,-0.0502,-0.0503,-0.0505,-0.0659,-0.0663,-0.0666,0,0,0,0,0,0,0,0,0,0,0,0,0,-0.0363,-0.0333,-0.0393,-0.0434,-0.0438,-0.0442,-0.0442,-0.0443,-0.05,-0.0502,-0.0504,-0.0506,-0.0658,-0.0662,-0.0667,-0.0651,0,0,-0.068,-0.0681,0,0,0,0,0,0,0,0,-0.0361,-0.0364,-0.0427,-0.0431,-0.0436,-0.0472,-0.0479,-0.052,-0.0499,-0.047,-0.0504,-0.0507,-0.0609,-0.0618,-0.0613,-0.0658,-0.0665,-0.068,-0.0683,-0.0684,-0.0686,0,0,0,0,0,0,0,-0.0359,-0.0362,-0.0407,-0.0428,-0.0434,-0.0445,-0.0451,-0.0486,-0.0525,-0.0473,-0.0479,-0.0493,-0.0612,-0.0608,-0.0617,-0.0667,-0.068,-0.0684,-0.0686,-0.0688,-0.0837,-0.0838,0,0,0,0,0,0,-0.0363,-0.036,-0.0405,-0.0409,-0.0409,-0.0445,-0.0451,-0.0454,-0.0523,-0.0536,-0.0491,-0.0495,-0.06,-0.0612,-0.0623,-0.0747,-0.0684,-0.0688,-0.0691,-0.0835,-0.0837,-0.0838,0,0,0,0,0,0,-0.0361,-0.0366,-0.0403,-0.0391,-0.0398,-0.0444,-0.0446,-0.0454,-0.0505,-0.0536,-0.0551,-0.0541,-0.0602,-0.0617,-0.071,-0.0748,-0.069,-0.0694,-0.0834,-0.0836,-0.0838,-0.0906,0,0,0,0,0,0,-0.0359,-0.0364,-0.0378,-0.0391,-0.0399,-0.0426,-0.0445,-0.0454,-0.0509,-0.0517,-0.0583,-0.0596,-0.0605,-0.0704,-0.0715,-0.0753,-0.0697,-0.0832,-0.0835,-0.0837,-0.0902,-0.091,-0.0917,0,0,0,0,0,-0.0356,-0.0359,-0.0378,-0.0385,-0.0412,-0.0427,-0.0431,-0.0468,-0.0511,-0.0524,-0.0594,-0.0597,-0.0727,-0.071,-0.0721,-0.0762,-0.0831,-0.0834,-0.0837,-0.0899,-0.0909,-0.0917,0,0,0,0,0,0,-0.0345,-0.0367,-0.0387,-0.04,-0.0425,-0.044,-0.0464,-0.0496,-0.0557,-0.0594,-0.0627,-0.0644,-0.0734,-0.0739,-0.0718,-0.0809,-0.0774,-0.078,-0.0817,-0.0826,-0.0834,-0.0812,-0.0701,0,0,0,0,0,-0.0347,-0.0358,-0.0382,-0.0399,-0.0416,-0.0453,-0.0474,-0.0506,-0.0555,-0.0585,-0.064,-0.0697,-0.0742,-0.0783,-0.0816,-0.0877,-0.0845,-0.0906,-0.0913,-0.092,-0.0909,-0.0902,-0.0907,-0.0849,-0.0849,-0.0849,0,0,-0.0349,-0.0366,-0.0374,-0.0399,-0.0427,-0.0437,-0.0471,-0.052,-0.0546,-0.0595,-0.0677,-0.0735,-0.0765,-0.0831,-0.087,-0.0852,-0.0918,-0.0924,-0.0929,-0.0914,-0.0905,-0.0911,-0.0916,-0.0851,-0.085,-0.085,0,0,-0.0351,-0.0377,-0.0387,-0.0407,-0.046,-0.0466,-0.0494,-0.0548,-0.0594,-0.0675,-0.0716,-0.0801,-0.0877,-0.0899,-0.0918,-0.0986,-0.0959,-0.101,-0.1037,-0.1032,-0.1036,-0.1039,-0.0997,-0.0996,-0.1014,-0.1014,-0.1014,0,-0.0362,-0.0371,-0.0394,-0.0411,-0.0436,-0.0484,-0.0505,-0.0535,-0.0621,-0.0669,-0.0716,-0.0847,-0.0894,-0.0949,-0.0987,-0.1003,-0.0987,-0.1004,-0.1041,-0.1043,-0.1045,-0.1001,-0.0999,-0.1018,-0.1017,-0.1017,-0.1017,0,-0.0361,-0.0382,-0.0396,-0.042,-0.0442,-0.0476,-0.0516,-0.0573,-0.0654,-0.0692,-0.0809,-0.0884,-0.0959,-0.0993,-0.1024,-0.1072,-0.105,-0.1051,-0.1015,-0.1055,-0.1006,-0.1003,-0.1023,-0.1022,-0.1021,-0.102,0,0,-0.0367,-0.0388,-0.0402,-0.0418,-0.0463,-0.0479,-0.0528,-0.0578,-0.0632,-0.0734,-0.0801,-0.0916,-0.0984,-0.101,-0.1065,-0.1082,-0.1104,-0.1093,-0.1091,-0.1044,-0.1074,-0.0932,-0.0914,-0.1125,-0.1126,-0.1126,-0.103,0,-0.0375,-0.0387,-0.0406,-0.0432,-0.0443,-0.0499,-0.0537,-0.0597,-0.0669,-0.0739,-0.0828,-0.0912,-0.0975,-0.105,-0.1077,-0.1101,-0.1101,-0.1128,-0.1046,-0.1042,-0.0906,-0.0907,-0.1126,-0.1027,-0.1026,-0.1025,-0.1025,0,-0.0382,-0.0385,-0.0413,-0.0447,-0.0466,-0.0502,-0.0585,-0.063,-0.0711,-0.0778,-0.0866,-0.092,-0.0988,-0.1034,-0.1064,-0.1087,-0.1089,-0.1091,-0.1087,-0.0922,-0.0893,-0.098,-0.1018,-0.1019,-0.1019,-0.102,-0.102,0,-0.0369,-0.0398,-0.0421,-0.0436,-0.0478,-0.0542,-0.059,-0.0674,-0.072,-0.0812,-0.0844,-0.0922,-0.097,-0.0994,-0.1005,-0.1054,-0.0985,-0.1039,-0.0894,-0.0882,-0.101,-0.1008,-0.1029,-0.1029,-0.103,-0.103,-0.103,0,-0.037,-0.039,-0.0435,-0.045,-0.0507,-0.0564,-0.0651,-0.0706,-0.0785,-0.0804,-0.0885,-0.0869,-0.097,-0.0938,-0.0964,-0.0883,-0.0942,-0.0876,-0.0846,-0.104,-0.1043,-0.1006,-0.1005,-0.1026,-0.1027,-0.1028,-0.1028,0,-0.0365,-0.0388,-0.0406,-0.047,-0.0505,-0.0566,-0.067,-0.0711,-0.0797,-0.0816,-0.084,-0.0838,-0.0784,-0.0809,-0.0803,-0.08,-0.0754,-0.0704,-0.0855,-0.0839,-0.0674,-0.0678,-0.0562,-0.0556,-0.0551,-0.0547,-0.0543,0,-0.0355,-0.0376,-0.0418,-0.0444,-0.0495,-0.0585,-0.0637,-0.0727,-0.0741,-0.075,-0.0719,-0.0681,-0.0667,-0.0514,-0.0562,-0.054,-0.0551,-0.0535,-0.0673,-0.0641,-0.0625,-0.0637,-0.0647,-0.0535,-0.0534,-0.0533,-0.0531,0,-0.0344,-0.0378,-0.0381,-0.0427,-0.0489,-0.051,-0.0584,-0.0577,-0.0641,-0.0706,-0.0582,-0.0536,-0.0433,-0.0401,-0.0365,-0.0364,-0.0564,-0.0485,-0.0499,-0.0628,-0.0608,-0.06,-0.0616,-0.0514,-0.0517,-0.0518,-0.0519,0,-0.0338,-0.0332,-0.0352,-0.0393,-0.0435,-0.0417,-0.0461,-0.0451,-0.0468,-0.0497,-0.0419,-0.0369,-0.0377,-0.0296,-0.0248,-0.0239,-0.0287,-0.0341,-0.0364,-0.0384,-0.0374,-0.0325,-0.0096,0,0,0,0,0,-0.0319,-0.03,-0.032,-0.0313,-0.0344,-0.0367,-0.04,-0.0434,-0.0476,-0.0375,-0.0414,-0.031,-0.0231,-0.0178,-0.0139,-0.0181,-0.0293,-0.0137,-0.0369,-0.0418,-0.0438,-0.0446,0,0,0,0,0,0,-0.0299,-0.0299,-0.0286,-0.0245,-0.0235,-0.0239,-0.0252,-0.0276,-0.0222,-0.0275,-0.0212,-0.0285,-0.0192,-0.024,-0.0124,-0.0124,-0.0264,-0.0136,-0.0134,-0.0407,-0.0425,-0.0441,-0.0456,0,0,0,0,0]},{"header":{"parameterUnit":"m.s-1","parameterCategory":2,"la1":30.2991,"la2":30.254,"lo1":-89.0895,"lo2":-89.0444,"dy":0.0017,"dx":0.0017,"nx":28,"ny":28,"refTime":"2024-07-11T09:00:00:Z","depth":"4","parameterNumber":3,"parameterNumberName":"V-component_of_CURRENTS"},"data":[0,0,0,0,0,0,0,0,0,0,0,0,0,0,0,0,0,0,0,0,0,0,0,0,0,0,0,0,0,0,0,0,0,0,0,0,0,0,0,0,0,0,0,0,0,0,0,0,0,0,0,0,0,0,0,0,0,0,-0.0106,-0.0107,0,-0.0128,-0.0128,-0.0128,-0.0095,-0.0094,-0.0093,-0.0092,-0.0093,-0.0093,-0.0094,0,0,0,0,0,0,0,0,0,0,0,0,0,-0.0059,-0.006,-0.0106,-0.0107,-0.0107,-0.0128,-0.0128,-0.0128,-0.0095,-0.0094,-0.0093,-0.0092,-0.0092,-0.0093,-0.0094,0,0,0,0,0,0,0,0,0,0,0,0,0,-0.0078,-0.006,-0.0106,-0.0095,-0.0094,-0.0128,-0.0128,-0.0128,-0.0096,-0.0094,-0.0093,-0.0091,-0.0092,-0.0093,-0.0095,-0.0132,0,0,-0.0099,-0.0099,0,0,0,0,0,0,0,0,-0.0077,-0.008,-0.0096,-0.0096,-0.0095,-0.0109,-0.0111,-0.0129,-0.0096,-0.0093,-0.0092,-0.0091,-0.0099,-0.0099,-0.0104,-0.0132,-0.0132,-0.0099,-0.01,-0.01,-0.0101,0,0,0,0,0,0,0,-0.0076,-0.0079,-0.0113,-0.0097,-0.0096,-0.0096,-0.0097,-0.0114,-0.0102,-0.0093,-0.0091,-0.0097,-0.0098,-0.0103,-0.0104,-0.0132,-0.0099,-0.01,-0.0101,-0.0101,-0.0184,-0.0185,0,0,0,0,0,0,-0.0078,-0.0078,-0.0112,-0.0114,-0.0085,-0.0098,-0.0099,-0.0104,-0.0102,-0.0101,-0.0098,-0.0096,-0.0101,-0.0102,-0.0104,-0.0134,-0.01,-0.0102,-0.0102,-0.0183,-0.0184,-0.0186,0,0,0,0,0,0,-0.0077,-0.0081,-0.0111,-0.0097,-0.0101,-0.0101,-0.0107,-0.0106,-0.0113,-0.0106,-0.0104,-0.0107,-0.01,-0.0102,-0.0128,-0.0134,-0.0102,-0.0103,-0.0181,-0.0183,-0.0185,-0.0204,0,0,0,0,0,0,-0.0075,-0.008,-0.009,-0.0098,-0.0102,-0.0133,-0.0109,-0.0107,-0.0119,-0.0116,-0.0114,-0.0112,-0.0099,-0.0126,-0.013,-0.0136,-0.0104,-0.0179,-0.0182,-0.0184,-0.0202,-0.0206,-0.0211,0,0,0,0,0,-0.0074,-0.0087,-0.009,-0.0095,-0.0114,-0.0134,-0.0137,-0.013,-0.0121,-0.013,-0.0133,-0.0112,-0.0144,-0.0129,-0.0133,-0.0139,-0.0178,-0.0181,-0.0184,-0.02,-0.0205,-0.021,0,0,0,0,0,0,-0.0073,-0.0086,-0.0089,-0.0106,-0.0122,-0.0129,-0.0141,-0.014,-0.0151,-0.0152,-0.0137,-0.0137,-0.0159,-0.0159,-0.0142,-0.0173,-0.0156,-0.016,-0.0166,-0.0172,-0.0176,-0.0173,-0.0106,0,0,0,0,0,-0.008,-0.0093,-0.0107,-0.0125,-0.0134,-0.0142,-0.0152,-0.0154,-0.0164,-0.0166,-0.0169,-0.0174,-0.0178,-0.0182,-0.0191,-0.0217,-0.02,-0.0223,-0.0227,-0.0231,-0.0233,-0.021,-0.0211,-0.0196,-0.0196,-0.0196,0,0,-0.0089,-0.0097,-0.0106,-0.0127,-0.0138,-0.0155,-0.0144,-0.0168,-0.0186,-0.0168,-0.0198,-0.0196,-0.0191,-0.021,-0.022,-0.0208,-0.023,-0.0235,-0.0238,-0.0237,-0.0213,-0.0214,-0.0215,-0.0198,-0.0198,-0.0198,0,0,-0.0111,-0.0119,-0.0137,-0.0151,-0.0175,-0.0178,-0.0188,-0.0208,-0.0219,-0.0255,-0.0237,-0.0248,-0.0266,-0.0257,-0.0254,-0.0298,-0.0257,-0.0294,-0.0309,-0.0287,-0.0287,-0.0287,-0.0276,-0.0275,-0.0293,-0.0293,-0.0293,0,-0.0124,-0.0145,-0.0148,-0.0168,-0.0184,-0.0188,-0.0215,-0.0228,-0.0258,-0.0276,-0.0269,-0.029,-0.0288,-0.0292,-0.0298,-0.0306,-0.0282,-0.0283,-0.029,-0.029,-0.0289,-0.0277,-0.0275,-0.0294,-0.0294,-0.0294,-0.0293,0,-0.0152,-0.0176,-0.019,-0.0211,-0.0227,-0.0254,-0.0271,-0.0298,-0.0312,-0.0322,-0.035,-0.0347,-0.0348,-0.035,-0.0334,-0.033,-0.0311,-0.0297,-0.0268,-0.0291,-0.0278,-0.0276,-0.0296,-0.0295,-0.0295,-0.0295,0,0,-0.0171,-0.0204,-0.0213,-0.023,-0.0256,-0.0272,-0.0309,-0.0341,-0.0365,-0.0385,-0.0408,-0.0411,-0.0396,-0.0391,-0.0369,-0.0353,-0.0333,-0.0317,-0.0316,-0.0293,-0.0279,-0.03,-0.0299,-0.0302,-0.0302,-0.0301,-0.0273,0,-0.0199,-0.0239,-0.0252,-0.0294,-0.0314,-0.0333,-0.0367,-0.0397,-0.0415,-0.0437,-0.0432,-0.0434,-0.0412,-0.0398,-0.0381,-0.034,-0.0327,-0.0343,-0.0273,-0.0271,-0.0275,-0.0297,-0.03,-0.0272,-0.0271,-0.0271,-0.027,0,-0.0222,-0.0247,-0.0297,-0.0338,-0.0351,-0.0379,-0.0426,-0.0457,-0.0484,-0.0493,-0.0487,-0.0465,-0.0438,-0.0416,-0.0359,-0.0359,-0.0324,-0.0298,-0.0296,-0.0305,-0.0288,-0.0244,-0.0266,-0.0266,-0.0267,-0.0267,-0.0267,0,-0.0224,-0.0275,-0.0316,-0.0331,-0.038,-0.0418,-0.0443,-0.0483,-0.0508,-0.0511,-0.0505,-0.048,-0.0449,-0.0403,-0.0348,-0.0336,-0.0291,-0.027,-0.0264,-0.0265,-0.0243,-0.0243,-0.024,-0.024,-0.024,-0.024,-0.024,0,-0.0239,-0.0272,-0.0325,-0.0349,-0.0403,-0.0434,-0.049,-0.051,-0.0536,-0.0548,-0.0518,-0.0496,-0.0436,-0.04,-0.0356,-0.0308,-0.0294,-0.0273,-0.026,-0.0255,-0.0257,-0.0241,-0.0242,-0.0239,-0.0239,-0.024,-0.024,0,-0.0237,-0.0272,-0.0319,-0.0385,-0.0408,-0.0447,-0.0505,-0.0537,-0.0548,-0.0555,-0.0541,-0.0495,-0.0435,-0.04,-0.0332,-0.0315,-0.0274,-0.0265,-0.0278,-0.0264,-0.0259,-0.0261,-0.0245,-0.0245,-0.0246,-0.0246,-0.0246,0,-0.0238,-0.0264,-0.034,-0.0375,-0.0412,-0.047,-0.0514,-0.0543,-0.0557,-0.0547,-0.0537,-0.0485,-0.0451,-0.0369,-0.0338,-0.0285,-0.0277,-0.0268,-0.0253,-0.0271,-0.0259,-0.0261,-0.0262,-0.0247,-0.0247,-0.0247,-0.0247,0,-0.0243,-0.0277,-0.0318,-0.0386,-0.0439,-0.0488,-0.0536,-0.0528,-0.0552,-0.0562,-0.0505,-0.0465,-0.0414,-0.0355,-0.0331,-0.029,-0.0279,-0.0272,-0.027,-0.0256,-0.0274,-0.0262,-0.0263,-0.0249,-0.0249,-0.0249,-0.0248,0,-0.0246,-0.0276,-0.0336,-0.0383,-0.0451,-0.0484,-0.0507,-0.0514,-0.0522,-0.05,-0.0482,-0.0429,-0.0409,-0.0357,-0.033,-0.0304,-0.0284,-0.0273,-0.027,-0.0269,-0.0291,-0.0318,-0.03,0,0,0,0,0,-0.0244,-0.027,-0.0327,-0.0378,-0.044,-0.0476,-0.0517,-0.0531,-0.0531,-0.0488,-0.0484,-0.0434,-0.0379,-0.0349,-0.0319,-0.0339,-0.029,-0.0308,-0.0278,-0.0257,-0.0255,-0.0281,0,0,0,0,0,0,-0.0249,-0.0295,-0.0318,-0.0361,-0.0391,-0.0455,-0.0476,-0.0481,-0.045,-0.0446,-0.0403,-0.0427,-0.0362,-0.0381,-0.0311,-0.0309,-0.0288,-0.0295,-0.0294,-0.0258,-0.0257,-0.0255,-0.0281,0,0,0,0,0]}]]